Regional Weather Roundup
Issued by NWS

Home | Current Version | Previous Version | Graphics & Text | Print | Product List | Glossary On
Versions: 1 2 3 4 5 6 7 8 9 10 11 12 13 14 15 16 17 18 19 20 21 22 23 24 25 26 27 28 29 30 31 32 33 34 35 36 37 38 39 40 41 42 43 44 45 46 47 48 49 50
000
ASUS43 KDMX 301207
RWRIA

WEATHER ROUNDUP FOR IOWA
NATIONAL WEATHER SERVICE DES MOINES IA
700 AM CDT SUN AUG 30 2015

NOTE: "FAIR" INDICATES FEW OR NO CLOUDS BELOW 12,000 FEET WITH NO
SIGNIFICANT WEATHER AND/OR OBSTRUCTIONS TO VISIBILITY.

* - THESE STATIONS ARE NOT NWS STATIONS...THUS NOT UNDER NWS
QUALITY CONTROL.  THEY ALSO DO NOT REPORT WEATHER SUCH
AS PRECIPITATION OR FOG.

IAZ001>003-012>014-020>022-031>034-043>046-301300-
   NORTHWEST IOWA

CITY           SKY/WX    TMP DP  RH WIND       PRES   REMARKS
CARROLL *      CLOUDY    63  63 100 CALM      30.04S FOG
CHEROKEE *     CLOUDY    63  62  97 SW7       30.02S
DENISON *      FOG       63  63 100 S3        30.02R VSB 1/2
LE MARS *      CLOUDY    63  61  94 S9G15     30.03R
ORANGE CITY *  CLOUDY    63  61  94 S12       30.02R
SHELDON *      CLOUDY    63  61  94 S9G15     30.01R
SPENCER        CLOUDY    63  59  87 S7        30.03S
6HR MIN TEMP:  61; 6HR MAX TEMP:  63;

STORM LAKE *   CLOUDY    63  61  94 S6        30.04R
$$

IAZ055>058-069>071-079>083-090>094-301300-
   SOUTHWEST IOWA

CITY           SKY/WX    TMP DP  RH WIND       PRES   REMARKS
ATLANTIC *     FOG       63  63 100 CALM      30.04R VSB 0
AUDUBON *      FOG       61  57  88 CALM      30.06R VSB 1/2
CLARINDA *     FOG       61  61 100 CALM      30.06R VSB 1/4
COUNCIL BLFS * FOG       61  61 100 SW6       30.04R VSB 0
CRESTON *      FOG       63  63 100 CALM      30.06R VSB 1/4
HARLAN  *      FOG       64 N/A N/A VRB5      30.07R VSB 1/4
LAMONI         FOG       64  63  96 E3        30.05R VSB 1/4
6HR MIN TEMP:  61; 6HR MAX TEMP:  66;

RED OAK *      FOG       61  61 100 CALM      30.05R VSB 0
SHENANDOAH *   FOG       57  57 100 CALM      30.05R VSB 0
$$

IAZ047>049-059>061-072>074-084-301300-
   CENTRAL IOWA

CITY           SKY/WX    TMP DP  RH WIND       PRES   REMARKS
AMES           CLOUDY    61  60  97 CALM      30.05S
6HR MIN TEMP:  56; 6HR MAX TEMP:  61;

ANKENY *       FOG       57  57 100 CALM      30.06R VSB 0
CHARITON *     FOG       63  63 100 CALM      30.05S VSB 0
DES MOINES     FOG       62  59  90 CALM      30.05R VSB 1/4
6HR MIN TEMP:  60; 6HR MAX TEMP:  66;

GRINNELL*      FOG       63  63 100 CALM      30.07R VSB<1/4
KNOXVILLE *    FOG       61  61 100 CALM      30.04S VSB 0
MARSHALLTOWN   CLOUDY    62  61  96 E3        30.05R
6HR MIN TEMP:  57; 6HR MAX TEMP:  62;

PELLA *        FOG       62  62 100 CALM      30.06S VSB<1/4
PERRY *        CLOUDY    63  63 100 CALM      30.06R FOG
$$

IAZ004>006-015-016-023>025-035-036-301300-
   NORTH CENTRAL IOWA

CITY           SKY/WX    TMP DP  RH WIND       PRES   REMARKS
ALGONA *       CLOUDY    63  61  94 SW7       30.04S
CLARION *      CLOUDY    61  61 100 CALM      30.05S
ESTHERVILLE    CLOUDY    60  59  96 SW9       30.03S
6HR MIN TEMP:  60; 6HR MAX TEMP:  61;

FORT DODGE *   CLOUDY    63  59  88 CALM      30.05S
MASON CITY     FOG       56  56 100 S5        30.06S VSB 1/4
6HR MIN TEMP:  53; 6HR MAX TEMP:  60;

FOREST CITY *  CLOUDY    54  54 100 SE3       30.04S FOG
IOWA FALLS *   FOG       59  59 100 CALM      30.07R VSB 1/4
$$

IAZ007>011-017>019-026>030-037>042-050>054-066-301300-
   NORTHEAST IOWA

CITY           SKY/WX    TMP DP  RH WIND       PRES   REMARKS
CEDAR RAPIDS   FOG       63  63 100 SE3       30.06R VSB 1/4
6HR MIN TEMP:  57; 6HR MAX TEMP:  63;

CHARLES CITY * FOG       57  57 100 SE3       30.07R VSB 0
CLINTON *      MOCLDY    57  57 100 CALM      30.09R VSB<1/4
DECORAH *      CLOUDY    57  57 100 S5        30.06R
DUBUQUE        CLEAR     58  56  93 CALM      30.08R
6HR MIN TEMP:  56; 6HR MAX TEMP:  64;

MONTICELLO *   FOG       57  57 100 CALM      30.07R VSB 1/2
OELWEIN *      CLOUDY    61  61 100 SE5       30.07S FOG
WATERLOO       CLOUDY    60  59  96 CALM      30.05R
6HR MIN TEMP:  54; 6HR MAX TEMP:  60;

$$

IAZ064-065-067-068-078-301300-
   EAST CENTRAL IOWA

CITY           SKY/WX    TMP DP  RH WIND       PRES   REMARKS
DAVENPORT      FOG       61  60  97 E3        30.06R VSB<1/4
6HR MIN TEMP:  57; 6HR MAX TEMP:  62;

IOWA CITY      FOG       64  63  96 CALM      30.07R VSB 1/4
6HR MIN TEMP:  61; 6HR MAX TEMP:  66;

MT. PLEASANT * FOG       68  65  89 E3        30.05R VSB 1/4
MUSCATINE *    FOG       63  63 100 CALM      30.06R VSB 0
QUAD CITIES    FOG       63  61  93 CALM      30.06R VSB<1/4
6HR MIN TEMP:  59; 6HR MAX TEMP:  63;

$$

IAZ062-063-075>077-085>089-095>099-301300-
   SOUTHEAST IOWA

CITY           SKY/WX    TMP DP  RH WIND       PRES   REMARKS
BURLINGTON     FOG       67  67 100 E6        30.05R VSB 1/4
6HR MIN TEMP:  65; 6HR MAX TEMP:  68;

FAIRFIELD *    FOG       64  63  94 SE5       30.05S VSB 0
FORT MADISON * FOG       66  66 100 E3        30.05R VSB 1/4
KEOKUK *       CLOUDY    68  68 100 CALM      30.04R
OSKALOOSA *    FOG       64  63  97 CALM      30.06R VSB 1/4
CENTERVILLE *  FOG       64  64 100 CALM      30.07R VSB 1/2
OTTUMWA        FOG       65  65 100 S3        30.04R VSB 1/4
6HR MIN TEMP:  64; 6HR MAX TEMP:  66;

WASHINGTON *     N/A    N/A N/A N/A MISG        N/A
$$

ABBREVIATIONS USED IN REMARKS
   TC - TEMPERATURES IN CELSIUS
  WCI - WIND CHILL INDEX
   HX - HEAT INDEX
  VSB - VISIBILITY
$$



USA.gov is the U.S. government's official web portal to all federal, state and local government web resources and services.